This is the latest recevied weather packets stored in our database for station/object GW1601. If no packets are shown the sender has not sent any weather packets the latest 10 day(s).
| Time | Temp. | Humidity | Pressure | Rain* | Wind** | Luminosity | Snow |
|---|---|---|---|---|---|---|---|
| 1777676956 | 9.44° C | 78% | 989.5 hPa | 1.02 mm | - | - | - |
| 1777674077 | 10° C | 76% | 988.8 hPa | 1.02 mm | - | - | - |
| 1777672640 | 10° C | 75% | 988.8 hPa | 1.02 mm | - | - | - |
| 1777672289 | 10.56° C | 78% | 988.8 hPa | 1.02 mm | - | - | - |
| 1777671204 | 11.11° C | 75% | 988.1 hPa | 1.02 mm | - | - | - |
| 1777669783 | 13.33° C | 69% | 987.8 hPa | 1.02 mm | - | - | - |
| 1777669415 | 12.22° C | 71% | 987.8 hPa | 1.02 mm | - | - | - |
| 1777666187 | 12.78° C | 82% | 987.1 hPa | 1.02 mm | - | - | - |
| 1777658615 | 10° C | 90% | 987.4 hPa | 0.51 mm | - | - | - |
| 1777656434 | 11.11° C | 88% | 987.4 hPa | 0.25 mm | - | - | - |
| 1777655741 | 11.67° C | 88% | 987.1 hPa | 0.25 mm | - | - | - |
| 1777655021 | 11.11° C | 87% | 987.1 hPa | 0.25 mm | - | - | - |
| 1777654649 | 10.56° C | 86% | 987.1 hPa | 0.25 mm | - | - | - |
| 1777653199 | 12.22° C | 82% | 987.4 hPa | 0 mm | - | - | - |
| 1777652831 | 12.78° C | 77% | 987.4 hPa | 0 mm | - | - | - |
| 1777651428 | 12.22° C | 76% | 987.4 hPa | 0 mm | - | - | - |
| 1777649615 | 12.78° C | 68% | 987.1 hPa | 0 mm | - | - | - |
| 1777648171 | 12.78° C | 71% | 987.4 hPa | 0 mm | - | - | - |
| 1777646744 | 12.78° C | 71% | 987.4 hPa | 0 mm | - | - | - |
| 1777644932 | 12.22° C | 70% | 987.8 hPa | 0 mm | - | - | - |
| 1777640613 | 7.78° C | 99% | 988.1 hPa | 0 mm | - | - | - |
| 1777636650 | 3.33° C | 99% | 988.4 hPa | 0 mm | - | - | - |
| 1777634140 | 1.67° C | 99% | 988.8 hPa | 0 mm | - | - | - |
| 1777631268 | 0.56° C | 99% | 988.4 hPa | 0 mm | - | - | - |
| 1777629089 | 0.56° C | 99% | 988.4 hPa | 0 mm | - | - | - |
* Rain since midnight (hover to see other rain measurements)
** Current wind speed in m/s (hover to see current wind gust speed)